QPF
0.06 0.05 0.03 0.01 0.01 0.00 0.00 0.01 0.01 0.02 0.02 0.03 0.04 0.03 0.03 0.02 0.01 0.01 0.01 0.01 0.01 0.02 0.04 0.04 0.03 0.11 0.14 0.09 0.15 0.23 0.22 0.14 0.22 0.24 0.09 0.02 0.01 0.00 0.00 0.01 0.01 0.01 0.01
0.04 0.02 0.00 0.00 0.00 0.00 0.00 0.00 0.00 0.00 0.00 0.00 0.00 0.00 0.00 0.00 0.00 0.00 0.00 0.00 0.00 0.01 0.02 0.02 0.01 0.04 0.05 0.05 0.07 0.14 0.15 0.13 0.22 0.26 0.17 0.05 0.01 0.01 0.01 0.00 0.00 0.00 0.00
0.01 0.00 0.00 0.00 0.00 0.00 0.00 0.00 0.00 0.00 0.00 0.00 0.00 0.00 0.00 0.00 0.00 0.00 0.00 0.00 0.00 0.00 0.00 0.00 0.01 0.01 0.01 0.01 0.02 0.05 0.08 0.06 0.06 0.12 0.16 0.08 0.02 0.01 0.01 0.01 0.00 0.00 0.02
0.01 0.00 0.00 0.00 0.00 0.00 0.00 0.00 0.00 0.00 0.00 0.00 0.00 0.00 0.00 0.00 0.00 0.00 0.00 0.00 0.00 0.00 0.00 0.00 0.00 0.00 0.00 0.00 0.01 0.01 0.03 0.03 0.02 0.03 0.06 0.07 0.06 0.03 0.01 0.01 0.01 0.01 0.03
0.00 0.00 0.00 0.00 0.00 0.00 0.00 0.00 0.00 0.00 0.00 0.00 0.00 0.00 0.00 0.00 0.00 0.00 0.00 0.00 0.00 0.00 0.00 0.00 0.00 0.00 0.00 0.00 0.01 0.01 0.02 0.02 0.01 0.02 0.03 0.05 0.06 0.05 0.03 0.01 0.01 0.01 0.03
0.00 0.00 0.00 0.00 0.00 0.00 0.00 0.00 0.00 0.00 0.00 0.00 0.00 0.00 0.00 0.00 0.00 0.00 0.00 0.00 0.00 0.00 0.00 0.00 0.00 0.00 0.00 0.00 0.01 0.01 0.01 0.02 0.02 0.02 0.03 0.04 0.05 0.04 0.04 0.02 0.02 0.02 0.05
0.00 0.00 0.00 0.00 0.00 0.00 0.00 0.00 0.00 0.00 0.00 0.00 0.00 0.00 0.00 0.00 0.00 0.00 0.00 0.00 0.00 0.00 0.00 0.00 0.00 0.00 0.00 0.00 0.01 0.01 0.01 0.02 0.03 0.03 0.03 0.05 0.05 0.04 0.04 0.04 0.04 0.04 0.06
0.00 0.00 0.00 0.00 0.00 0.00 0.00 0.00 0.00 0.00 0.00 0.00 0.00 0.00 0.00 0.00 0.00 0.00 0.00 0.00 0.00 0.00 0.00 0.00 0.00 0.00 0.00 0.01 0.02 0.03 0.03 0.04 0.04 0.05 0.06 0.06 0.07 0.09 0.10 0.10 0.10 0.08 0.10
0.00 0.00 0.00 0.00 0.00 0.00 0.00 0.00 0.00 0.00 0.00 0.00 0.00 0.00 0.00 0.00 0.00 0.00 0.00 0.00 0.00 0.00 0.00 0.00 0.00 0.00 0.01 0.02 0.04 0.04 0.05 0.05 0.05 0.08 0.10 0.11 0.12 0.13 0.14 0.14 0.14 0.13 0.15
0.00 0.00 0.00 0.00 0.00 0.00 0.00 0.00 0.00 0.00 0.00 0.00 0.00 0.00 0.00 0.00 0.00 0.00 0.00 0.00 0.00 0.00 0.00 0.00 0.00 0.00 0.01 0.01 0.02 0.04 0.04 0.05 0.07 0.10 0.14 0.16 0.16 0.16 0.16 0.16 0.14 0.10 0.12
0.00 0.00 0.00 0.00 0.00 0.00 0.00 0.00 0.00 0.00 0.00 0.00 0.00 0.00 0.00 0.00 0.00 0.00 0.00 0.00 0.00 0.00 0.00 0.00 0.00 0.01 0.01 0.01 0.02 0.04 0.06 0.08 0.12 0.16 0.22 0.24 0.22 0.24 0.21 0.16 0.11 0.07 0.06
0.00 0.00 0.00 0.00 0.00 0.00 0.00 0.00 0.00 0.00 0.00 0.00 0.00 0.00 0.00 0.00 0.00 0.00 0.00 0.00 0.00 0.00 0.01 0.00 0.00 0.01 0.02 0.04 0.06 0.10 0.14 0.16 0.19 0.23 0.30 0.36 0.36 0.29 0.22 0.16 0.12 0.07 0.04
0.00 0.00 0.00 0.00 0.00 0.00 0.00 0.00 0.00 0.00 0.00 0.00 0.00 0.00 0.00 0.00 0.00 0.00 0.00 0.00 0.00 0.00 0.00 0.00 0.01 0.02 0.02 0.04 0.09 0.17 0.24 0.30 0.33 0.34 0.34 0.34 0.32 0.27 0.20 0.13 0.08 0.05 0.02
0.00 0.00 0.00 0.00 0.00 0.00 0.00 0.00 0.00 0.00 0.00 0.00 0.00 0.00 0.00 0.00 0.00 0.00 0.00 0.00 0.00 0.00 0.00 0.00 0.01 0.02 0.03 0.06 0.11 0.19 0.29 0.34 0.37 0.36 0.31 0.24 0.20 0.19 0.15 0.09 0.05 0.02 0.01
0.00 0.00 0.00 0.00 0.00 0.00 0.00 0.00 0.00 0.00 0.00 0.00 0.00 0.00 0.00 0.00 0.00 0.00 0.00 0.00 0.00 0.00 0.00 0.00 0.01 0.01 0.03 0.07 0.12 0.15 0.17 0.22 0.25 0.23 0.18 0.13 0.09 0.08 0.06 0.04 0.02 0.01 0.00
0.00 0.01 0.01 0.01 0.00 0.00 0.00 0.00 0.00 0.00 0.00 0.00 0.00 0.00 0.00 0.00 0.00 0.00 0.00 0.00 0.00 0.00 0.00 0.00 0.00 0.00 0.02 0.07 0.10 0.10 0.10 0.09 0.09 0.09 0.07 0.05 0.03 0.02 0.01 0.00 0.00 0.00 0.00
0.05 0.05 0.04 0.03 0.01 0.00 0.00 0.00 0.00 0.00 0.01 0.01 0.01 0.01 0.01 0.01 0.01 0.01 0.01 0.00 0.00 0.00 0.00 0.00 0.00 0.00 0.01 0.03 0.04 0.03 0.03 0.02 0.02 0.02 0.02 0.01 0.01 0.00 0.00 0.00 0.00 0.00 0.00
0.06 0.04 0.02 0.01 0.00 0.00 0.00 0.00 0.00 0.01 0.01 0.01 0.02 0.02 0.02 0.02 0.03 0.03 0.02 0.01 0.01 0.00 0.00 0.00 0.00 0.00 0.00 0.00 0.00 0.01 0.01 0.00 0.00 0.00 0.00 0.00 0.00 0.00 0.00 0.00 0.00 0.00 0.00
0.02 0.01 0.00 0.00 0.00 0.00 0.00 0.00 0.00 0.00 0.01 0.02 0.03 0.04 0.04 0.04 0.05 0.05 0.05 0.04 0.02 0.01 0.00 0.00 0.00 0.00 0.00 0.00 0.00 0.00 0.00 0.00 0.00 0.00 0.00 0.00 0.00 0.00 0.00 0.00 0.00 0.00 0.00
0.00 0.00 0.00 0.00 0.00 0.00 0.00 0.00 0.00 0.00 0.00 0.01 0.02 0.03 0.05 0.06 0.07 0.09 0.10 0.08 0.05 0.03 0.01 0.00 0.00 0.00 0.00 0.00 0.00 0.00 0.00 0.00 0.00 0.00 0.00 0.00 0.00 0.00 0.00 0.00 0.00 0.00 0.00
0.00 0.00 0.00 0.00 0.00 0.00 0.00 0.00 0.00 0.00 0.00 0.01 0.01 0.03 0.05 0.08 0.11 0.13 0.13 0.12 0.11 0.06 0.02 0.00 0.00 0.00 0.00 0.00 0.00 0.00 0.00 0.00 0.00 0.00 0.00 0.00 0.00 0.00 0.00 0.00 0.00 0.00 0.00
0.00 0.00 0.00 0.00 0.00 0.00 0.00 0.00 0.00 0.00 0.00 0.00 0.01 0.02 0.05 0.09 0.12 0.16 0.18 0.20 0.19 0.13 0.05 0.01 0.00 0.00 0.00 0.00 0.00 0.00 0.00 0.00 0.00 0.00 0.00 0.00 0.00 0.00 0.00 0.00 0.00 0.00 0.00
0.00 0.00 0.00 0.00 0.00 0.00 0.00 0.00 0.00 0.00 0.00 0.00 0.01 0.02 0.06 0.12 0.16 0.19 0.22 0.28 0.31 0.26 0.12 0.02 0.00 0.00 0.00 0.00 0.00 0.00 0.00 0.00 0.00 0.00 0.00 0.00 0.00 0.00 0.00 0.00 0.00 0.00 0.00
0.00 0.00 0.00 0.00 0.00 0.00 0.00 0.00 0.00 0.00 0.00 0.00 0.00 0.02 0.06 0.12 0.21 0.27 0.29 0.35 0.41 0.37 0.20 0.04 0.00 0.00 0.00 0.00 0.00 0.00 0.00 0.00 0.00 0.00 0.00 0.00 0.00 0.00 0.00 0.00 0.00 0.00 0.00
0.00 0.00 0.00 0.00 0.00 0.00 0.00 0.00 0.00 0.00 0.00 0.00 0.00 0.02 0.05 0.11 0.21 0.30 0.33 0.37 0.42 0.43 0.27 0.08 0.01 0.00 0.00 0.00 0.00 0.00 0.00 0.00 0.00 0.00 0.00 0.00 0.00 0.00 0.00 0.00 0.00 0.00 0.00
0.00 0.00 0.00 0.00 0.00 0.00 0.00 0.00 0.00 0.00 0.00 0.00 0.00 0.01 0.04 0.09 0.19 0.30 0.34 0.34 0.36 0.36 0.29 0.12 0.03 0.00 0.00 0.00 0.00 0.00 0.00 0.00 0.00 0.00 0.00 0.00 0.00 0.00 0.00 0.00 0.00 0.00 0.00
MSLP
1011.98 1011.93 1011.80 1011.60 1011.38 1011.17 1011.03 1010.98 1011.04 1011.20 1011.43 1011.68 1011.90 1012.05 1012.12 1012.10 1012.00 1011.86 1011.70 1011.55 1011.44 1011.35 1011.30 1011.26 1011.22 1011.17 1011.11 1011.05 1011.00 1010.97 1010.97 1010.99 1011.04 1011.09 1011.13 1011.12 1011.06 1010.94 1010.76 1010.53 1010.29 1010.05 1009.83
1012.12 1012.07 1011.94 1011.74 1011.50 1011.25 1011.07 1010.97 1011.00 1011.14 1011.37 1011.64 1011.88 1012.07 1012.17 1012.16 1012.06 1011.89 1011.69 1011.50 1011.33 1011.19 1011.08 1010.99 1010.90 1010.80 1010.70 1010.60 1010.51 1010.45 1010.43 1010.45 1010.51 1010.59 1010.66 1010.69 1010.67 1010.59 1010.43 1010.21 1009.97 1009.72 1009.48
1012.06 1012.04 1011.94 1011.77 1011.54 1011.29 1011.09 1010.97 1010.97 1011.10 1011.32 1011.60 1011.87 1012.08 1012.21 1012.22 1012.13 1011.96 1011.74 1011.51 1011.29 1011.09 1010.92 1010.76 1010.60 1010.44 1010.27 1010.10 1009.96 1009.86 1009.81 1009.83 1009.91 1010.01 1010.13 1010.22 1010.26 1010.22 1010.12 1009.94 1009.72 1009.48 1009.24
1011.81 1011.83 1011.79 1011.67 1011.48 1011.25 1011.05 1010.92 1010.91 1011.02 1011.23 1011.51 1011.80 1012.05 1012.20 1012.24 1012.17 1012.01 1011.79 1011.53 1011.27 1011.02 1010.77 1010.54 1010.30 1010.05 1009.80 1009.56 1009.36 1009.20 1009.12 1009.13 1009.21 1009.35 1009.52 1009.67 1009.78 1009.82 1009.78 1009.67 1009.50 1009.30 1009.09
1011.43 1011.50 1011.53 1011.47 1011.33 1011.13 1010.94 1010.81 1010.78 1010.87 1011.08 1011.35 1011.65 1011.92 1012.11 1012.18 1012.15 1012.01 1011.79 1011.52 1011.23 1010.93 1010.63 1010.31 1009.99 1009.65 1009.31 1008.99 1008.71 1008.50 1008.38 1008.36 1008.45 1008.61 1008.82 1009.03 1009.22 1009.34 1009.39 1009.36 1009.27 1009.14 1008.99
1011.03 1011.15 1011.23 1011.23 1011.13 1010.97 1010.79 1010.65 1010.60 1010.67 1010.85 1011.11 1011.41 1011.69 1011.90 1012.02 1012.02 1011.91 1011.71 1011.45 1011.15 1010.81 1010.45 1010.07 1009.66 1009.24 1008.81 1008.41 1008.05 1007.78 1007.61 1007.57 1007.64 1007.81 1008.05 1008.31 1008.56 1008.77 1008.91 1008.98 1008.99 1008.95 1008.88
1010.74 1010.88 1011.00 1011.03 1010.96 1010.81 1010.63 1010.47 1010.39 1010.42 1010.57 1010.80 1011.09 1011.37 1011.60 1011.75 1011.78 1011.71 1011.55 1011.30 1010.99 1010.64 1010.24 1009.80 1009.34 1008.84 1008.34 1007.87 1007.44 1007.10 1006.88 1006.80 1006.85 1007.01 1007.25 1007.54 1007.84 1008.11 1008.34 1008.51 1008.63 1008.70 1008.74
1010.68 1010.83 1010.95 1010.98 1010.90 1010.74 1010.53 1010.33 1010.20 1010.18 1010.27 1010.46 1010.72 1010.99 1011.22 1011.39 1011.45 1011.42 1011.28 1011.06 1010.77 1010.41 1010.00 1009.54 1009.03 1008.49 1007.95 1007.41 1006.93 1006.54 1006.27 1006.13 1006.14 1006.26 1006.49 1006.78 1007.11 1007.43 1007.72 1007.98 1008.21 1008.40 1008.56
1010.95 1011.07 1011.15 1011.14 1011.02 1010.80 1010.54 1010.28 1010.08 1009.99 1010.01 1010.14 1010.35 1010.58 1010.80 1010.97 1011.05 1011.04 1010.94 1010.75 1010.48 1010.15 1009.75 1009.29 1008.78 1008.23 1007.66 1007.10 1006.59 1006.15 1005.83 1005.64 1005.59 1005.67 1005.85 1006.12 1006.43 1006.77 1007.12 1007.45 1007.77 1008.07 1008.36
1011.58 1011.64 1011.65 1011.55 1011.35 1011.05 1010.70 1010.35 1010.07 1009.89 1009.83 1009.88 1010.02 1010.20 1010.38 1010.52 1010.60 1010.61 1010.53 1010.37 1010.15 1009.85 1009.49 1009.07 1008.59 1008.06 1007.51 1006.96 1006.44 1005.98 1005.63 1005.39 1005.28 1005.29 1005.42 1005.63 1005.92 1006.25 1006.61 1006.99 1007.38 1007.78 1008.16
1012.54 1012.50 1012.40 1012.19 1011.87 1011.46 1011.01 1010.56 1010.18 1009.91 1009.75 1009.71 1009.75 1009.85 1009.97 1010.07 1010.13 1010.13 1010.07 1009.95 1009.77 1009.53 1009.24 1008.88 1008.47 1008.01 1007.51 1007.00 1006.51 1006.06 1005.69 1005.41 1005.25 1005.20 1005.25 1005.40 1005.63 1005.93 1006.28 1006.68 1007.11 1007.57 1008.03
1013.69 1013.54 1013.31 1012.97 1012.52 1011.99 1011.43 1010.88 1010.40 1010.02 1009.76 1009.61 1009.55 1009.56 1009.59 1009.63 1009.64 1009.63 1009.58 1009.49 1009.36 1009.20 1008.98 1008.72 1008.41 1008.04 1007.63 1007.20 1006.76 1006.35 1005.99 1005.70 1005.50 1005.39 1005.37 1005.45 1005.61 1005.86 1006.18 1006.56 1007.00 1007.49 1008.00
1014.87 1014.60 1014.23 1013.75 1013.17 1012.53 1011.87 1011.23 1010.66 1010.19 1009.82 1009.56 1009.40 1009.29 1009.23 1009.19 1009.15 1009.10 1009.05 1008.99 1008.92 1008.83 1008.72 1008.56 1008.36 1008.12 1007.82 1007.49 1007.14 1006.80 1006.47 1006.19 1005.97 1005.82 1005.75 1005.77 1005.86 1006.05 1006.31 1006.66 1007.08 1007.56 1008.09
1015.89 1015.49 1014.99 1014.40 1013.72 1012.99 1012.25 1011.54 1010.90 1010.35 1009.89 1009.53 1009.26 1009.04 1008.88 1008.75 1008.65 1008.56 1008.51 1008.47 1008.45 1008.44 1008.42 1008.38 1008.31 1008.19 1008.02 1007.81 1007.57 1007.31 1007.04 1006.80 1006.59 1006.43 1006.33 1006.29 1006.33 1006.45 1006.66 1006.96 1007.34 1007.79 1008.29
1016.59 1016.08 1015.48 1014.80 1014.06 1013.28 1012.50 1011.75 1011.06 1010.46 1009.93 1009.48 1009.11 1008.79 1008.53 1008.31 1008.14 1008.02 1007.95 1007.93 1007.95 1008.00 1008.07 1008.14 1008.19 1008.20 1008.16 1008.07 1007.95 1007.79 1007.61 1007.43 1007.25 1007.11 1007.00 1006.94 1006.94 1007.02 1007.17 1007.41 1007.73 1008.13 1008.59
1016.86 1016.27 1015.61 1014.88 1014.11 1013.33 1012.55 1011.80 1011.11 1010.48 1009.91 1009.40 1008.94 1008.54 1008.19 1007.89 1007.66 1007.50 1007.41 1007.39 1007.44 1007.54 1007.68 1007.84 1007.99 1008.10 1008.18 1008.22 1008.21 1008.16 1008.07 1007.97 1007.87 1007.77 1007.68 1007.63 1007.61 1007.65 1007.76 1007.95 1008.21 1008.55 1008.95
1016.68 1016.04 1015.36 1014.63 1013.88 1013.13 1012.40 1011.69 1011.02 1010.39 1009.80 1009.26 1008.75 1008.28 1007.87 1007.51 1007.22 1007.02 1006.91 1006.88 1006.94 1007.08 1007.26 1007.47 1007.69 1007.89 1008.07 1008.20 1008.30 1008.36 1008.38 1008.38 1008.36 1008.33 1008.29 1008.27 1008.27 1008.30 1008.38 1008.52 1008.73 1009.01 1009.35
1016.08 1015.43 1014.76 1014.07 1013.39 1012.71 1012.05 1011.41 1010.79 1010.20 1009.63 1009.07 1008.54 1008.04 1007.58 1007.18 1006.86 1006.62 1006.48 1006.44 1006.49 1006.63 1006.82 1007.06 1007.31 1007.57 1007.81 1008.03 1008.22 1008.38 1008.51 1008.62 1008.69 1008.75 1008.79 1008.82 1008.85 1008.90 1008.97 1009.09 1009.26 1009.49 1009.77
1015.17 1014.54 1013.90 1013.29 1012.68 1012.10 1011.53 1010.98 1010.44 1009.91 1009.37 1008.84 1008.32 1007.82 1007.34 1006.92 1006.58 1006.31 1006.15 1006.08 1006.11 1006.22 1006.40 1006.63 1006.89 1007.18 1007.46 1007.74 1008.01 1008.26 1008.50 1008.70 1008.89 1009.04 1009.17 1009.27 1009.35 1009.43 1009.52 1009.63 1009.78 1009.96 1010.20
1014.08 1013.47 1012.90 1012.35 1011.84 1011.35 1010.88 1010.43 1009.97 1009.50 1009.03 1008.55 1008.06 1007.58 1007.13 1006.71 1006.36 1006.09 1005.90 1005.80 1005.79 1005.87 1006.01 1006.22 1006.47 1006.76 1007.06 1007.39 1007.72 1008.06 1008.38 1008.69 1008.98 1009.24 1009.46 1009.64 1009.79 1009.91 1010.02 1010.14 1010.28 1010.44 1010.64
1012.91 1012.34 1011.81 1011.33 1010.89 1010.49 1010.10 1009.73 1009.35 1008.97 1008.57 1008.15 1007.73 1007.31 1006.90 1006.52 1006.18 1005.91 1005.71 1005.58 1005.54 1005.57 1005.67 1005.84 1006.07 1006.35 1006.67 1007.03 1007.42 1007.83 1008.24 1008.65 1009.03 1009.38 1009.69 1009.95 1010.16 1010.34 1010.48 1010.62 1010.76 1010.91 1011.10
1011.75 1011.19 1010.69 1010.25 1009.85 1009.50 1009.18 1008.87 1008.57 1008.26 1007.95 1007.62 1007.27 1006.93 1006.59 1006.26 1005.97 1005.72 1005.52 1005.38 1005.30 1005.29 1005.36 1005.49 1005.70 1005.97 1006.31 1006.71 1007.15 1007.62 1008.11 1008.61 1009.08 1009.51 1009.90 1010.22 1010.50 1010.72 1010.90 1011.06 1011.21 1011.37 1011.54
1010.63 1010.05 1009.54 1009.10 1008.72 1008.38 1008.09 1007.83 1007.59 1007.35 1007.12 1006.89 1006.64 1006.40 1006.14 1005.90 1005.66 1005.45 1005.26 1005.12 1005.03 1005.00 1005.04 1005.15 1005.35 1005.63 1005.99 1006.43 1006.92 1007.46 1008.02 1008.59 1009.13 1009.63 1010.08 1010.46 1010.78 1011.04 1011.26 1011.44 1011.61 1011.78 1011.96
1009.53 1008.91 1008.36 1007.88 1007.46 1007.12 1006.83 1006.59 1006.39 1006.23 1006.08 1005.94 1005.81 1005.67 1005.52 1005.36 1005.19 1005.03 1004.88 1004.75 1004.66 1004.63 1004.66 1004.78 1004.99 1005.30 1005.69 1006.17 1006.72 1007.32 1007.95 1008.57 1009.17 1009.72 1010.21 1010.63 1010.99 1011.28 1011.52 1011.73 1011.93 1012.12 1012.31
1008.45 1007.75 1007.12 1006.57 1006.10 1005.71 1005.40 1005.17 1005.01 1004.91 1004.85 1004.81 1004.78 1004.74 1004.70 1004.63 1004.54 1004.43 1004.33 1004.23 1004.16 1004.14 1004.19 1004.33 1004.57 1004.92 1005.37 1005.90 1006.51 1007.17 1007.85 1008.52 1009.16 1009.74 1010.26 1010.70 1011.07 1011.39 1011.65 1011.89 1012.11 1012.33 1012.54
1007.35 1006.55 1005.83 1005.19 1004.64 1004.21 1003.88 1003.65 1003.52 1003.47 1003.49 1003.54 1003.60 1003.67 1003.71 1003.73 1003.71 1003.66 1003.59 1003.53 1003.49 1003.50 1003.59 1003.77 1004.06 1004.46 1004.97 1005.56 1006.23 1006.94 1007.67 1008.37 1009.03 1009.63 1010.16 1010.61 1011.00 1011.33 1011.61 1011.88 1012.13 1012.38 1012.63
Thickness
5769 5770 5770 5768 5764 5761 5758 5755 5751 5749 5746 5741 5738 5735 5733 5733 5732 5730 5728 5726 5724 5723 5722 5721 5721 5722 5721 5722 5722 5721 5720 5720 5720 5715 5716 5721 5723 5725 5726 5727 5727 5729 5731
5760 5762 5762 5760 5757 5755 5752 5749 5746 5743 5739 5736 5733 5730 5728 5727 5725 5723 5721 5719 5717 5715 5714 5714 5714 5714 5715 5716 5716 5715 5714 5715 5713 5709 5705 5706 5712 5718 5721 5722 5723 5725 5726
5753 5755 5754 5752 5751 5749 5747 5744 5741 5737 5733 5730 5726 5722 5719 5717 5714 5713 5711 5710 5708 5707 5707 5707 5707 5708 5709 5710 5711 5711 5709 5708 5709 5707 5701 5697 5700 5706 5711 5714 5716 5717 5718
5752 5750 5749 5747 5746 5745 5743 5739 5736 5732 5728 5725 5720 5715 5710 5707 5705 5703 5702 5701 5700 5699 5699 5699 5700 5701 5703 5705 5706 5707 5706 5705 5703 5702 5701 5700 5700 5695 5698 5703 5706 5708 5709
5749 5747 5747 5746 5744 5741 5737 5734 5730 5727 5725 5722 5718 5713 5708 5704 5701 5697 5694 5692 5691 5690 5690 5691 5692 5694 5696 5698 5700 5701 5702 5701 5700 5698 5697 5695 5693 5692 5689 5690 5694 5696 5700
5746 5746 5745 5742 5738 5736 5732 5729 5725 5723 5721 5718 5714 5710 5705 5701 5696 5692 5688 5685 5682 5681 5681 5682 5684 5686 5688 5691 5693 5695 5696 5697 5696 5695 5693 5691 5689 5688 5685 5684 5685 5684 5688
5742 5740 5739 5736 5733 5730 5728 5725 5721 5719 5717 5713 5710 5706 5701 5696 5691 5687 5683 5679 5676 5674 5673 5674 5675 5678 5681 5684 5687 5689 5690 5691 5691 5690 5689 5688 5687 5685 5682 5678 5677 5676 5678
5733 5732 5732 5730 5728 5727 5725 5722 5718 5715 5712 5708 5704 5700 5695 5691 5686 5682 5678 5674 5670 5668 5667 5667 5668 5671 5673 5676 5679 5681 5683 5684 5685 5685 5684 5682 5681 5679 5677 5674 5671 5668 5667
5724 5723 5724 5723 5722 5722 5720 5718 5714 5710 5706 5702 5697 5692 5689 5685 5681 5678 5673 5669 5666 5663 5661 5660 5661 5663 5666 5668 5670 5673 5674 5676 5677 5677 5677 5676 5674 5672 5671 5670 5668 5665 5661
5707 5707 5708 5710 5710 5710 5708 5706 5704 5702 5699 5695 5690 5687 5683 5681 5677 5673 5669 5665 5661 5658 5655 5654 5654 5656 5658 5660 5662 5664 5666 5667 5669 5669 5669 5668 5667 5665 5664 5664 5663 5663 5662
5690 5691 5693 5694 5695 5696 5695 5694 5692 5690 5688 5686 5683 5680 5678 5675 5671 5667 5664 5661 5657 5653 5650 5648 5647 5648 5650 5652 5653 5655 5656 5657 5659 5660 5661 5661 5660 5658 5657 5657 5656 5656 5657
5675 5676 5676 5678 5679 5679 5679 5679 5678 5678 5677 5677 5675 5673 5671 5668 5665 5662 5660 5656 5652 5649 5646 5643 5642 5642 5643 5645 5646 5646 5647 5648 5649 5650 5652 5652 5652 5651 5650 5649 5648 5648 5649
5660 5659 5659 5659 5659 5661 5662 5663 5664 5664 5666 5666 5666 5665 5664 5662 5660 5658 5655 5651 5648 5645 5642 5639 5637 5636 5636 5637 5637 5638 5638 5638 5639 5640 5641 5642 5643 5642 5641 5640 5640 5639 5639
5641 5640 5640 5640 5641 5642 5644 5646 5648 5650 5652 5654 5655 5657 5658 5657 5655 5653 5650 5646 5643 5640 5637 5635 5633 5631 5630 5629 5629 5628 5628 5629 5629 5629 5630 5631 5632 5632 5631 5630 5630 5631 5630
5623 5622 5622 5622 5623 5625 5627 5629 5631 5634 5637 5640 5643 5647 5649 5650 5649 5647 5644 5641 5638 5636 5633 5630 5628 5626 5624 5623 5621 5621 5620 5620 5619 5619 5620 5621 5622 5623 5623 5623 5623 5625 5624
5604 5604 5604 5604 5605 5607 5610 5612 5614 5617 5620 5623 5627 5632 5636 5639 5641 5641 5638 5635 5632 5630 5627 5625 5622 5620 5619 5616 5615 5614 5613 5612 5611 5610 5610 5611 5613 5615 5615 5615 5617 5619 5618
5587 5587 5587 5587 5588 5590 5592 5594 5597 5600 5603 5606 5610 5614 5619 5623 5627 5629 5629 5627 5626 5623 5621 5619 5616 5614 5612 5610 5608 5607 5605 5603 5603 5603 5603 5604 5604 5606 5606 5606 5608 5609 5611
5577 5576 5575 5575 5575 5575 5576 5577 5579 5581 5584 5587 5591 5595 5599 5604 5609 5613 5615 5617 5616 5615 5614 5612 5610 5608 5606 5604 5602 5599 5597 5595 5594 5595 5596 5596 5595 5597 5599 5599 5599 5599 5601
5564 5562 5561 5559 5558 5556 5554 5555 5558 5560 5561 5564 5568 5572 5576 5582 5587 5593 5599 5602 5604 5604 5604 5605 5603 5602 5601 5598 5595 5593 5590 5587 5586 5586 5587 5589 5589 5591 5593 5594 5593 5593 5593
5546 5543 5541 5538 5536 5535 5530 5529 5534 5536 5538 5541 5545 5549 5553 5558 5564 5571 5580 5586 5591 5594 5595 5596 5596 5596 5595 5593 5590 5588 5585 5581 5579 5578 5579 5580 5582 5584 5587 5589 5590 5587 5586
5529 5525 5521 5520 5520 5516 5509 5509 5513 5515 5519 5521 5524 5528 5533 5537 5544 5551 5559 5569 5577 5581 5583 5587 5587 5587 5589 5586 5584 5583 5581 5578 5575 5573 5572 5573 5575 5578 5580 5583 5585 5583 5583
5507 5503 5499 5501 5502 5497 5490 5491 5494 5497 5500 5504 5508 5514 5519 5524 5531 5535 5543 5552 5561 5568 5572 5575 5576 5578 5580 5581 5579 5578 5578 5576 5572 5569 5567 5567 5569 5572 5574 5576 5576 5577 5579
5494 5493 5490 5492 5493 5490 5485 5484 5488 5489 5490 5495 5501 5507 5511 5515 5518 5522 5528 5537 5548 5556 5563 5566 5569 5570 5572 5573 5573 5571 5570 5569 5568 5565 5563 5562 5563 5566 5568 5569 5571 5573 5574
5486 5487 5486 5488 5490 5489 5487 5486 5487 5486 5487 5491 5497 5501 5504 5506 5508 5511 5515 5522 5534 5544 5553 5559 5564 5566 5566 5567 5567 5565 5563 5562 5561 5559 5557 5557 5558 5560 5561 5563 5565 5567 5568
5483 5483 5483 5485 5487 5487 5487 5487 5486 5484 5484 5486 5491 5495 5497 5499 5501 5503 5506 5511 5521 5532 5543 5553 5561 5565 5566 5568 5568 5566 5562 5560 5559 5555 5553 5553 5553 5555 5557 5558 5559 5561 5562
5481 5481 5481 5482 5483 5483 5483 5482 5482 5480 5478 5480 5483 5487 5490 5493 5495 5498 5501 5505 5513 5525 5534 5543 5555 5565 5569 5566 5563 5564 5562 5559 5556 5556 5554 5552 5553 5555 5556 5557 5557 5557 5558